Location: ???????
(52.3000°N, 54.4667°E)
Time: 09:56:26
(UTC+00:00)

ADEOS Rocket - Pass Details

Date: 24 January 2020
Orbit: 859 x 1306 km, 98.7° (Epoch: 17 February)

Event Time Altitude Azimuth Distance (km) Brightness Sun altitude
Rises 15:53:56 0° 14° (NNE) 3,761 6.0 -27.2°
Reaches altitude 10° 15:56:19 10° 14° (NNE) 2,864 5.3 -27.6°
Maximum altitude 16:02:52 81° 289° (WNW) 1,148 3.3 -28.6°
Drops below altitude 10° 16:10:06 10° 203° (SSW) 3,157 5.8 -29.7°
Sets 16:12:50 0° 202° (SSW) 4,167 6.5 -30.1°
